Time,TemperatureF,DewpointF,PressureIn,WindDirection,WindDirectionDegrees,WindSpeedMPH,WindSpeedGustMPH,Humidity,HourlyPrecipIn,Conditions,Clouds,dailyrainin,SoftwareType,DateUTC
2013-10-22 00:02:00,53.6,28.6,29.22,North,357,0.0,0.0,38,0.00,,,0.00,meteohub,2013-10-22 07:02:00,
2013-10-22 00:07:00,53.2,29.5,29.22,North,357,0.0,0.0,40,0.00,,,0.00,meteohub,2013-10-22 07:07:00,
2013-10-22 00:12:00,53.1,29.3,29.22,North,357,0.0,0.0,40,0.00,,,0.00,meteohub,2013-10-22 07:12:00,
2013-10-22 00:17:00,52.9,29.8,29.22,North,357,0.0,0.0,41,0.00,,,0.00,meteohub,2013-10-22 07:17:00,
2013-10-22 00:22:00,52.5,29.5,29.22,North,357,0.0,0.0,41,0.00,,,0.00,meteohub,2013-10-22 07:22:00,
2013-10-22 00:27:00,52.2,29.1,29.22,North,357,0.0,0.0,41,0.00,,,0.00,meteohub,2013-10-22 07:27:00,
2013-10-22 00:32:00,51.8,28.8,29.22,North,357,0.0,0.0,41,0.00,,,0.00,meteohub,2013-10-22 07:32:00,
2013-10-22 00:37:00,51.6,30.4,29.22,North,357,0.0,0.0,44,0.00,,,0.00,meteohub,2013-10-22 07:37:00,
2013-10-22 00:42:00,51.3,29.5,29.22,North,357,0.0,0.0,43,0.00,,,0.00,meteohub,2013-10-22 07:42:00,
2013-10-22 00:47:00,50.9,29.1,29.22,North,357,0.0,0.0,43,0.00,,,0.00,meteohub,2013-10-22 07:47:00,
2013-10-22 00:52:00,50.7,29.7,29.22,North,357,0.0,0.0,44,0.00,,,0.00,meteohub,2013-10-22 07:52:00,
2013-10-22 00:57:00,50.5,29.5,29.22,North,357,0.0,0.0,44,0.00,,,0.00,meteohub,2013-10-22 07:57:00,
2013-10-22 01:02:00,50.4,30.4,29.22,North,357,0.0,0.0,46,0.00,,,0.00,meteohub,2013-10-22 08:02:00,
2013-10-22 01:07:00,50.2,31.3,29.22,North,357,0.0,0.0,48,0.00,,,0.00,meteohub,2013-10-22 08:07:00,
2013-10-22 01:12:00,50.0,32.2,29.22,North,357,0.0,0.0,50,0.00,,,0.00,meteohub,2013-10-22 08:12:00,
2013-10-22 01:17:00,49.6,32.2,29.22,North,0,0.0,0.0,51,0.00,,,0.00,meteohub,2013-10-22 08:17:00,
2013-10-22 01:22:00,49.5,32.0,29.22,WNW,287,0.0,0.0,51,0.00,,,0.00,meteohub,2013-10-22 08:22:00,
2013-10-22 01:28:00,49.1,31.8,29.22,North,353,0.0,0.0,51,0.00,,,0.00,meteohub,2013-10-22 08:28:00,
2013-10-22 01:34:00,48.9,31.1,29.22,North,353,0.0,0.0,50,0.00,,,0.00,meteohub,2013-10-22 08:34:00,
2013-10-22 01:40:00,48.9,30.6,29.22,North,353,0.0,0.0,49,0.00,,,0.00,meteohub,2013-10-22 08:40:00,
2013-10-22 01:46:00,48.7,30.4,29.22,North,353,0.0,0.0,49,0.00,,,0.00,meteohub,2013-10-22 08:46:00,
2013-10-22 01:52:00,48.6,30.7,29.22,North,353,0.0,0.0,50,0.00,,,0.00,meteohub,2013-10-22 08:52:00,
2013-10-22 01:57:00,48.4,30.6,29.22,North,353,0.0,0.0,50,0.00,,,0.00,meteohub,2013-10-22 08:57:00,
2013-10-22 02:02:00,48.4,31.1,29.22,North,357,0.0,0.0,51,0.00,,,0.00,meteohub,2013-10-22 09:02:00,
2013-10-22 02:07:00,48.2,32.7,29.22,North,357,0.0,0.0,55,0.00,,,0.00,meteohub,2013-10-22 09:07:00,
2013-10-22 02:12:00,48.0,34.0,29.22,North,357,0.0,0.0,58,0.00,,,0.00,meteohub,2013-10-22 09:12:00,
2013-10-22 02:17:00,47.7,34.0,29.22,North,0,0.0,0.0,59,0.00,,,0.00,meteohub,2013-10-22 09:17:00,
2013-10-22 02:22:00,47.7,34.0,29.22,North,0,0.0,0.0,59,0.00,,,0.00,meteohub,2013-10-22 09:22:00,
2013-10-22 02:27:00,47.3,32.9,29.22,North,357,0.0,0.0,57,0.00,,,0.00,meteohub,2013-10-22 09:27:00,
2013-10-22 02:32:00,47.3,32.4,29.22,North,357,0.0,0.0,56,0.00,,,0.00,meteohub,2013-10-22 09:32:00,
2013-10-22 02:37:00,47.1,33.4,29.22,North,0,0.0,0.0,59,0.00,,,0.00,meteohub,2013-10-22 09:37:00,
2013-10-22 02:42:00,46.9,32.9,29.22,North,0,0.0,0.0,58,0.00,,,0.00,meteohub,2013-10-22 09:42:00,
2013-10-22 02:48:00,46.6,32.2,29.22,North,0,0.0,0.0,57,0.00,,,0.00,meteohub,2013-10-22 09:48:00,
2013-10-22 02:54:00,46.6,32.2,29.22,North,0,0.0,0.0,57,0.00,,,0.00,meteohub,2013-10-22 09:54:00,
2013-10-22 03:00:00,46.4,32.4,29.22,North,0,0.0,0.0,58,0.00,,,0.00,meteohub,2013-10-22 10:00:00,
2013-10-22 03:06:00,46.2,32.2,29.22,North,0,0.0,0.0,58,0.00,,,0.00,meteohub,2013-10-22 10:06:00,
2013-10-22 03:12:00,46.0,32.0,29.22,North,0,0.0,0.0,58,0.00,,,0.00,meteohub,2013-10-22 10:12:00,
2013-10-22 03:17:00,46.2,31.8,29.22,North,0,0.0,0.0,57,0.00,,,0.00,meteohub,2013-10-22 10:17:00,
2013-10-22 03:22:00,46.2,31.8,29.22,North,0,0.0,0.0,57,0.00,,,0.00,meteohub,2013-10-22 10:22:00,
2013-10-22 03:27:00,46.0,31.6,29.22,North,0,0.0,0.0,57,0.00,,,0.00,meteohub,2013-10-22 10:27:00,
2013-10-22 03:32:00,46.0,31.3,29.22,North,0,0.0,0.0,56,0.00,,,0.00,meteohub,2013-10-22 10:32:00,
2013-10-22 03:37:00,46.0,31.6,29.22,North,0,0.0,0.0,57,0.00,,,0.00,meteohub,2013-10-22 10:37:00,
2013-10-22 03:42:00,46.6,32.2,29.22,North,8,0.0,0.0,57,0.00,,,0.00,meteohub,2013-10-22 10:42:00,
2013-10-22 03:47:00,47.1,32.7,29.22,ESE,111,0.0,0.0,57,0.00,,,0.00,meteohub,2013-10-22 10:47:00,
2013-10-22 03:52:00,47.7,33.3,29.22,ESE,111,0.0,0.0,57,0.00,,,0.00,meteohub,2013-10-22 10:52:00,
2013-10-22 03:58:00,47.8,32.9,29.22,ESE,111,0.0,0.0,56,0.00,,,0.00,meteohub,2013-10-22 10:58:00,
2013-10-22 04:04:00,47.8,32.9,29.22,ESE,111,0.0,0.0,56,0.00,,,0.00,meteohub,2013-10-22 11:04:00,
2013-10-22 04:09:00,48.0,33.1,29.22,ESE,109,0.0,0.0,56,0.00,,,0.00,meteohub,2013-10-22 11:09:00,
2013-10-22 04:15:00,48.2,32.7,29.22,ESE,122,0.0,0.0,55,0.00,,,0.00,meteohub,2013-10-22 11:15:00,
2013-10-22 04:21:00,48.4,32.9,29.22,SE,130,0.0,0.0,55,0.00,,,0.00,meteohub,2013-10-22 11:21:00,
2013-10-22 04:26:00,48.4,32.5,29.22,SE,133,0.0,0.0,54,0.00,,,0.00,meteohub,2013-10-22 11:26:00,
2013-10-22 04:32:00,48.4,32.0,29.22,SE,133,0.0,0.0,53,0.00,,,0.00,meteohub,2013-10-22 11:32:00,
2013-10-22 04:37:00,48.2,31.8,29.22,SE,133,0.0,0.0,53,0.00,,,0.00,meteohub,2013-10-22 11:37:00,
2013-10-22 04:42:00,48.0,31.6,29.22,SE,133,0.0,0.0,53,0.00,,,0.00,meteohub,2013-10-22 11:42:00,
2013-10-22 04:47:00,47.8,31.1,29.22,SE,133,0.0,0.0,52,0.00,,,0.00,meteohub,2013-10-22 11:47:00,
2013-10-22 04:52:00,47.7,30.9,29.22,SE,133,0.0,0.0,52,0.00,,,0.00,meteohub,2013-10-22 11:52:00,
2013-10-22 04:57:00,47.8,31.5,29.22,SE,133,0.0,0.0,53,0.00,,,0.00,meteohub,2013-10-22 11:57:00,
2013-10-22 05:02:00,47.7,30.9,29.22,SE,133,0.0,0.0,52,0.00,,,0.00,meteohub,2013-10-22 12:02:00,
2013-10-22 05:07:00,47.5,30.7,29.22,SE,133,0.0,0.0,52,0.00,,,0.00,meteohub,2013-10-22 12:07:00,
2013-10-22 05:12:00,47.5,30.7,29.22,SE,133,0.0,0.0,52,0.00,,,0.00,meteohub,2013-10-22 12:12:00,
2013-10-22 05:17:00,47.3,30.6,29.22,SE,133,0.0,0.0,52,0.00,,,0.00,meteohub,2013-10-22 12:17:00,
2013-10-22 05:23:00,47.3,31.1,29.22,SE,133,0.0,0.0,53,0.00,,,0.00,meteohub,2013-10-22 12:23:00,
2013-10-22 05:29:00,47.1,31.3,29.22,SE,133,0.0,0.0,54,0.00,,,0.00,meteohub,2013-10-22 12:29:00,
2013-10-22 05:35:00,46.4,31.6,29.22,SE,133,0.0,0.0,56,0.00,,,0.00,meteohub,2013-10-22 12:35:00,
2013-10-22 05:41:00,45.9,31.5,29.22,SE,133,0.0,0.0,57,0.00,,,0.00,meteohub,2013-10-22 12:41:00,
2013-10-22 05:46:00,45.3,31.5,29.22,SE,133,0.0,0.0,58,0.00,,,0.00,meteohub,2013-10-22 12:46:00,
2013-10-22 05:52:00,45.0,30.6,29.22,SE,133,0.0,0.0,57,0.00,,,0.00,meteohub,2013-10-22 12:52:00,
2013-10-22 05:57:00,44.6,30.4,29.22,SE,133,0.0,0.0,57,0.00,,,0.00,meteohub,2013-10-22 12:57:00,
2013-10-22 06:02:00,44.4,30.6,29.22,SE,133,0.0,0.0,58,0.00,,,0.00,meteohub,2013-10-22 13:02:00,
2013-10-22 06:07:00,44.2,30.4,29.22,SE,133,0.0,0.0,58,0.00,,,0.00,meteohub,2013-10-22 13:07:00,
2013-10-22 06:12:00,44.2,30.4,29.22,SE,133,0.0,0.0,58,0.00,,,0.00,meteohub,2013-10-22 13:12:00,
2013-10-22 06:17:00,44.1,30.2,29.22,SE,133,0.0,0.0,58,0.00,,,0.00,meteohub,2013-10-22 13:17:00,
2013-10-22 06:22:00,43.7,29.8,29.22,SE,133,0.0,0.0,58,0.00,,,0.00,meteohub,2013-10-22 13:22:00,
2013-10-22 06:28:00,43.5,29.7,29.22,SE,133,0.0,0.0,58,0.00,,,0.00,meteohub,2013-10-22 13:28:00,
2013-10-22 06:34:00,43.2,29.8,29.22,SE,133,0.0,0.0,59,0.00,,,0.00,meteohub,2013-10-22 13:34:00,
2013-10-22 06:40:00,42.6,29.3,29.25,SE,133,0.0,0.0,59,0.00,,,0.00,meteohub,2013-10-22 13:40:00,
2013-10-22 06:46:00,42.1,28.8,29.25,SE,133,0.0,0.0,59,0.00,,,0.00,meteohub,2013-10-22 13:46:00,
2013-10-22 06:52:00,41.9,28.6,29.25,SE,133,0.0,0.0,59,0.00,,,0.00,meteohub,2013-10-22 13:52:00,
2013-10-22 06:57:00,41.7,28.4,29.25,SE,133,0.0,0.0,59,0.00,,,0.00,meteohub,2013-10-22 13:57:00,
2013-10-22 07:02:00,41.7,28.4,29.25,SE,133,0.0,0.0,59,0.00,,,0.00,meteohub,2013-10-22 14:02:00,
2013-10-22 07:07:00,42.1,29.1,29.25,SE,133,0.0,0.0,60,0.00,,,0.00,meteohub,2013-10-22 14:07:00,
2013-10-22 07:12:00,42.3,29.3,29.25,SE,133,0.0,0.0,60,0.00,,,0.00,meteohub,2013-10-22 14:12:00,
2013-10-22 07:17:00,42.4,29.5,29.25,SE,133,0.0,0.0,60,0.00,,,0.00,meteohub,2013-10-22 14:17:00,
2013-10-22 07:22:00,42.8,29.8,29.25,SE,133,0.0,0.0,60,0.00,,,0.00,meteohub,2013-10-22 14:22:00,
2013-10-22 07:27:00,43.2,30.2,29.25,SE,134,0.0,0.0,60,0.00,,,0.00,meteohub,2013-10-22 14:27:00,
2013-10-22 07:32:00,43.7,31.1,29.25,SE,141,0.0,0.0,61,0.00,,,0.00,meteohub,2013-10-22 14:32:00,
2013-10-22 07:37:00,44.1,31.1,29.25,ESE,104,0.0,0.0,60,0.00,,,0.00,meteohub,2013-10-22 14:37:00,
2013-10-22 07:43:00,44.4,31.5,29.22,East,84,0.0,0.0,60,0.00,,,0.00,meteohub,2013-10-22 14:43:00,
2013-10-22 07:48:00,45.0,31.5,29.22,East,89,0.0,0.0,59,0.00,,,0.00,meteohub,2013-10-22 14:48:00,
2013-10-22 07:54:00,45.3,31.5,29.22,NE,52,0.0,3.0,58,0.00,,,0.00,meteohub,2013-10-22 14:54:00,
2013-10-22 08:00:00,46.0,31.6,29.22,ENE,77,0.0,3.0,57,0.00,,,0.00,meteohub,2013-10-22 15:00:00,
2013-10-22 08:06:00,46.6,30.7,29.22,ESE,102,0.0,3.0,54,0.00,,,0.00,meteohub,2013-10-22 15:06:00,
2013-10-22 08:12:00,47.1,30.4,29.22,ESE,102,0.0,3.0,52,0.00,,,0.00,meteohub,2013-10-22 15:12:00,
2013-10-22 08:17:00,47.7,30.0,29.22,ENE,73,0.0,3.0,50,0.00,,,0.00,meteohub,2013-10-22 15:17:00,
2013-10-22 08:22:00,48.2,28.9,29.22,North,353,0.0,3.0,47,0.00,,,0.00,meteohub,2013-10-22 15:22:00,
2013-10-22 08:27:00,48.7,28.4,29.25,South,172,0.0,3.0,45,0.00,,,0.00,meteohub,2013-10-22 15:27:00,
2013-10-22 08:32:00,49.3,27.7,29.25,SE,132,0.0,3.0,43,0.00,,,0.00,meteohub,2013-10-22 15:32:00,
2013-10-22 08:37:00,49.8,28.2,29.25,SE,132,0.0,3.0,43,0.00,,,0.00,meteohub,2013-10-22 15:37:00,
2013-10-22 08:42:00,50.2,28.0,29.25,NNE,20,0.0,0.0,42,0.00,,,0.00,meteohub,2013-10-22 15:42:00,
2013-10-22 08:47:00,50.7,27.3,29.25,ENE,70,0.0,0.0,40,0.00,,,0.00,meteohub,2013-10-22 15:47:00,
2013-10-22 08:52:00,51.6,27.5,29.25,SE,141,0.0,6.0,39,0.00,,,0.00,meteohub,2013-10-22 15:52:00,
2013-10-22 08:57:00,52.0,27.9,29.25,ESE,111,0.0,6.0,39,0.00,,,0.00,meteohub,2013-10-22 15:57:00,
2013-10-22 09:02:00,52.3,28.0,29.25,SE,137,0.0,4.0,39,0.00,,,0.00,meteohub,2013-10-22 16:02:00,
2013-10-22 09:07:00,52.7,28.4,29.25,ESE,115,0.0,4.0,39,0.00,,,0.00,meteohub,2013-10-22 16:07:00,
2013-10-22 09:12:00,53.1,28.8,29.25,SE,141,0.0,0.0,39,0.00,,,0.00,meteohub,2013-10-22 16:12:00,
2013-10-22 09:17:00,53.4,27.9,29.25,SE,145,0.0,0.0,37,0.00,,,0.00,meteohub,2013-10-22 16:17:00,
2013-10-22 09:22:00,54.1,28.4,29.25,East,90,0.0,0.0,37,0.00,,,0.00,meteohub,2013-10-22 16:22:00,
2013-10-22 09:27:00,54.9,28.4,29.25,East,90,0.0,2.0,36,0.00,,,0.00,meteohub,2013-10-22 16:27:00,
2013-10-22 09:32:00,55.6,28.4,29.25,ENE,57,0.0,2.0,35,0.00,,,0.00,meteohub,2013-10-22 16:32:00,
2013-10-22 09:37:00,56.3,29.7,29.25,NE,52,0.0,2.0,36,0.00,,,0.00,meteohub,2013-10-22 16:37:00,
2013-10-22 09:42:00,56.8,28.0,29.25,ENE,72,0.0,0.0,33,0.00,,,0.00,meteohub,2013-10-22 16:42:00,
2013-10-22 09:47:00,57.2,27.7,29.25,East,79,4.0,0.0,32,0.00,,,0.00,meteohub,2013-10-22 16:47:00,
2013-10-22 09:52:00,57.7,27.3,29.25,ENE,78,0.0,5.0,31,0.00,,,0.00,meteohub,2013-10-22 16:52:00,
2013-10-22 09:57:00,58.1,28.4,29.25,ESE,111,0.0,5.0,32,0.00,,,0.00,meteohub,2013-10-22 16:57:00,
2013-10-22 10:02:00,58.5,27.9,29.25,SW,224,0.0,4.0,31,0.00,,,0.00,meteohub,2013-10-22 17:02:00,
2013-10-22 10:07:00,59.0,29.1,29.25,WSW,237,0.0,4.0,32,0.00,,,0.00,meteohub,2013-10-22 17:07:00,
2013-10-22 10:12:00,58.8,30.6,29.25,WSW,237,0.0,4.0,34,0.00,,,0.00,meteohub,2013-10-22 17:12:00,
2013-10-22 10:17:00,59.2,29.3,29.25,WSW,240,0.0,4.0,32,0.00,,,0.00,meteohub,2013-10-22 17:17:00,
2013-10-22 10:22:00,59.4,28.8,29.25,WSW,251,0.0,4.0,31,0.00,,,0.00,meteohub,2013-10-22 17:22:00,
2013-10-22 10:27:00,59.7,28.9,29.25,WSW,258,0.0,0.0,31,0.00,,,0.00,meteohub,2013-10-22 17:27:00,
2013-10-22 10:32:00,60.4,28.9,29.25,West,270,0.0,0.0,30,0.00,,,0.00,meteohub,2013-10-22 17:32:00,
2013-10-22 10:37:00,60.8,28.4,29.25,NW,321,0.0,0.0,29,0.00,,,0.00,meteohub,2013-10-22 17:37:00,
2013-10-22 10:42:00,61.3,28.8,29.25,North,353,0.0,0.0,29,0.00,,,0.00,meteohub,2013-10-22 17:42:00,
2013-10-22 10:47:00,61.9,29.3,29.25,North,353,0.0,0.0,29,0.00,,,0.00,meteohub,2013-10-22 17:47:00,
2013-10-22 10:52:00,62.4,28.9,29.25,North,353,0.0,0.0,28,0.00,,,0.00,meteohub,2013-10-22 17:52:00,
2013-10-22 10:57:00,63.0,28.4,29.25,North,353,0.0,0.0,27,0.00,,,0.00,meteohub,2013-10-22 17:57:00,
2013-10-22 11:03:00,63.7,29.1,29.25,North,353,0.0,0.0,27,0.00,,,0.00,meteohub,2013-10-22 18:03:00,
2013-10-22 11:09:00,64.2,28.6,29.25,North,353,0.0,0.0,26,0.00,,,0.00,meteohub,2013-10-22 18:09:00,
2013-10-22 11:15:00,65.1,29.3,29.25,SW,228,0.0,0.0,26,0.00,,,0.00,meteohub,2013-10-22 18:15:00,
2013-10-22 11:21:00,66.2,29.3,29.25,SW,233,0.0,0.0,25,0.00,,,0.00,meteohub,2013-10-22 18:21:00,
2013-10-22 11:27:00,67.1,30.0,29.25,SW,233,0.0,3.0,25,0.00,,,0.00,meteohub,2013-10-22 18:27:00,
2013-10-22 11:32:00,68.0,29.8,29.25,SW,230,0.0,3.0,24,0.00,,,0.00,meteohub,2013-10-22 18:32:00,
2013-10-22 11:37:00,68.9,30.6,29.25,SW,230,0.0,3.0,24,0.00,,,0.00,meteohub,2013-10-22 18:37:00,
2013-10-22 11:42:00,69.8,30.4,29.25,SW,231,0.0,3.0,23,0.00,,,0.00,meteohub,2013-10-22 18:42:00,
2013-10-22 11:47:00,70.5,30.9,29.25,WSW,240,0.0,0.0,23,0.00,,,0.00,meteohub,2013-10-22 18:47:00,
2013-10-22 11:52:00,71.2,31.5,29.25,SW,231,0.0,0.0,23,0.00,,,0.00,meteohub,2013-10-22 18:52:00,
2013-10-22 11:57:00,72.0,31.1,29.22,South,171,0.0,0.0,22,0.00,,,0.00,meteohub,2013-10-22 18:57:00,
2013-10-22 12:02:00,72.5,31.5,29.22,West,277,0.0,0.0,22,0.00,,,0.00,meteohub,2013-10-22 19:02:00,
2013-10-22 12:07:00,73.0,32.0,29.22,SW,235,0.0,4.0,22,0.00,,,0.00,meteohub,2013-10-22 19:07:00,
2013-10-22 12:12:00,73.9,31.5,29.22,SW,230,0.0,4.0,21,0.00,,,0.00,meteohub,2013-10-22 19:12:00,
2013-10-22 12:17:00,74.5,32.0,29.22,SW,233,0.0,4.0,21,0.00,,,0.00,meteohub,2013-10-22 19:17:00,
2013-10-22 12:22:00,75.0,32.4,29.22,WSW,242,0.0,4.0,21,0.00,,,0.00,meteohub,2013-10-22 19:22:00,
2013-10-22 12:28:00,75.9,32.0,29.22,WSW,249,0.0,0.0,20,0.00,,,0.00,meteohub,2013-10-22 19:28:00,
2013-10-22 12:33:00,76.6,33.8,29.22,SSW,204,0.0,0.0,21,0.00,,,0.00,meteohub,2013-10-22 19:33:00,
2013-10-22 12:38:00,77.4,33.1,29.22,WSW,247,0.0,3.0,20,0.00,,,0.00,meteohub,2013-10-22 19:38:00,
2013-10-22 12:44:00,78.1,33.8,29.22,WSW,256,0.0,4.0,20,0.00,,,0.00,meteohub,2013-10-22 19:44:00,
2013-10-22 12:49:00,79.0,34.5,29.22,WSW,241,4.0,4.0,20,0.00,,,0.00,meteohub,2013-10-22 19:49:00,
2013-10-22 12:55:00,79.9,35.2,29.22,West,280,3.0,4.0,20,0.00,,,0.00,meteohub,2013-10-22 19:55:00,
2013-10-22 13:01:00,80.2,31.5,29.22,NW,306,0.0,4.0,17,0.00,,,0.00,meteohub,2013-10-22 20:01:00,
2013-10-22 13:07:00,79.7,31.1,29.22,WSW,242,0.0,5.0,17,0.00,,,0.00,meteohub,2013-10-22 20:07:00,
2013-10-22 13:12:00,80.1,31.3,29.22,WNW,301,0.0,5.0,17,0.00,,,0.00,meteohub,2013-10-22 20:12:00,
2013-10-22 13:17:00,80.6,31.8,29.22,WNW,303,0.0,4.0,17,0.00,,,0.00,meteohub,2013-10-22 20:17:00,
2013-10-22 13:22:00,81.0,32.0,29.22,West,280,0.0,4.0,17,0.00,,,0.00,meteohub,2013-10-22 20:22:00,
2013-10-22 13:27:00,81.7,32.5,29.19,SW,220,0.0,3.0,17,0.00,,,0.00,meteohub,2013-10-22 20:27:00,
2013-10-22 13:32:00,81.9,32.7,29.19,North,0,0.0,3.0,17,0.00,,,0.00,meteohub,2013-10-22 20:32:00,
2013-10-22 13:37:00,81.9,32.7,29.19,West,280,4.0,4.0,17,0.00,,,0.00,meteohub,2013-10-22 20:37:00,
2013-10-22 13:42:00,82.6,31.8,29.19,WNW,289,3.0,3.0,16,0.00,,,0.00,meteohub,2013-10-22 20:42:00,
2013-10-22 13:47:00,83.3,32.4,29.19,NNW,345,2.0,5.0,16,0.00,,,0.00,meteohub,2013-10-22 20:47:00,
2013-10-22 13:52:00,83.7,32.7,29.19,NW,324,0.0,5.0,16,0.00,,,0.00,meteohub,2013-10-22 20:52:00,
2013-10-22 13:57:00,84.2,33.1,29.19,West,264,0.0,5.0,16,0.00,,,0.00,meteohub,2013-10-22 20:57:00,
2013-10-22 14:02:00,84.7,33.6,29.19,WNW,303,0.0,5.0,16,0.00,,,0.00,meteohub,2013-10-22 21:02:00,
2013-10-22 14:07:00,84.6,33.4,29.19,NNE,18,0.0,4.0,16,0.00,,,0.00,meteohub,2013-10-22 21:07:00,
2013-10-22 14:12:00,83.8,32.9,29.19,East,93,0.0,4.0,16,0.00,,,0.00,meteohub,2013-10-22 21:12:00,
2013-10-22 14:17:00,84.2,33.1,29.19,ENE,66,0.0,5.0,16,0.00,,,0.00,meteohub,2013-10-22 21:17:00,
2013-10-22 14:22:00,83.8,32.9,29.19,WSW,244,0.0,5.0,16,0.00,,,0.00,meteohub,2013-10-22 21:22:00,
2013-10-22 14:27:00,84.2,28.0,29.16,NNE,18,0.0,4.0,13,0.00,,,0.00,meteohub,2013-10-22 21:27:00,
2013-10-22 14:32:00,83.5,29.3,29.16,NNE,23,0.0,4.0,14,0.00,,,0.00,meteohub,2013-10-22 21:32:00,
2013-10-22 14:37:00,83.5,29.3,29.16,West,271,4.0,4.0,14,0.00,,,0.00,meteohub,2013-10-22 21:37:00,
2013-10-22 14:42:00,83.7,29.5,29.16,North,353,0.0,4.0,14,0.00,,,0.00,meteohub,2013-10-22 21:42:00,
2013-10-22 14:47:00,84.6,33.4,29.16,North,357,0.0,4.0,16,0.00,,,0.00,meteohub,2013-10-22 21:47:00,
2013-10-22 14:52:00,85.5,34.2,29.16,North,353,4.0,4.0,16,0.00,,,0.00,meteohub,2013-10-22 21:52:00,
2013-10-22 14:57:00,85.6,29.1,29.16,NE,52,0.0,5.0,13,0.00,,,0.00,meteohub,2013-10-22 21:57:00,
2013-10-22 15:02:00,86.0,29.5,29.16,NNW,345,0.0,5.0,13,0.00,,,0.00,meteohub,2013-10-22 22:02:00,
2013-10-22 15:07:00,86.7,35.2,29.16,NW,309,0.0,6.0,16,0.00,,,0.00,meteohub,2013-10-22 22:07:00,
2013-10-22 15:12:00,86.7,30.0,29.16,NNE,27,3.0,6.0,13,0.00,,,0.00,meteohub,2013-10-22 22:12:00,
2013-10-22 15:17:00,85.8,29.3,29.16,NE,56,0.0,4.0,13,0.00,,,0.00,meteohub,2013-10-22 22:17:00,
2013-10-22 15:22:00,86.4,29.7,29.16,WNW,286,4.0,4.0,13,0.00,,,0.00,meteohub,2013-10-22 22:22:00,
2013-10-22 15:27:00,87.1,30.2,29.16,WSW,246,2.0,4.0,13,0.00,,,0.00,meteohub,2013-10-22 22:27:00,
2013-10-22 15:32:00,87.4,30.6,29.16,WSW,242,4.0,4.0,13,0.00,,,0.00,meteohub,2013-10-22 22:32:00,
2013-10-22 15:37:00,88.0,30.9,29.16,WNW,285,0.0,7.0,13,0.00,,,0.00,meteohub,2013-10-22 22:37:00,
2013-10-22 15:42:00,88.3,31.3,29.16,North,353,0.0,7.0,13,0.00,,,0.00,meteohub,2013-10-22 22:42:00,
2013-10-22 15:47:00,88.9,31.6,29.16,WSW,238,0.0,6.0,13,0.00,,,0.00,meteohub,2013-10-22 22:47:00,
2013-10-22 15:52:00,89.2,32.0,29.16,NW,325,0.0,6.0,13,0.00,,,0.00,meteohub,2013-10-22 22:52:00,
2013-10-22 15:57:00,89.1,31.8,29.16,WSW,238,0.0,5.0,13,0.00,,,0.00,meteohub,2013-10-22 22:57:00,
2013-10-22 16:02:00,88.7,31.5,29.16,West,273,4.0,5.0,13,0.00,,,0.00,meteohub,2013-10-22 23:02:00,
2013-10-22 16:07:00,88.3,31.3,29.16,North,357,0.0,5.0,13,0.00,,,0.00,meteohub,2013-10-22 23:07:00,
2013-10-22 16:12:00,87.8,30.9,29.16,WSW,246,3.0,5.0,13,0.00,,,0.00,meteohub,2013-10-22 23:12:00,
2013-10-22 16:17:00,88.2,31.1,29.16,SW,232,3.0,6.0,13,0.00,,,0.00,meteohub,2013-10-22 23:17:00,
2013-10-22 16:22:00,88.5,31.5,29.16,WNW,284,0.0,6.0,13,0.00,,,0.00,meteohub,2013-10-22 23:22:00,
2013-10-22 16:27:00,88.9,31.6,29.16,SW,228,0.0,5.0,13,0.00,,,0.00,meteohub,2013-10-22 23:27:00,
2013-10-22 16:33:00,89.6,30.2,29.16,NNE,25,0.0,5.0,12,0.00,,,0.00,meteohub,2013-10-22 23:33:00,
2013-10-22 16:39:00,89.2,32.0,29.16,NNW,339,0.0,5.0,13,0.00,,,0.00,meteohub,2013-10-22 23:39:00,
2013-10-22 16:45:00,87.6,30.7,29.16,NW,308,0.0,5.0,13,0.00,,,0.00,meteohub,2013-10-22 23:45:00,
2013-10-22 16:51:00,87.3,30.4,29.16,NNW,332,0.0,5.0,13,0.00,,,0.00,meteohub,2013-10-22 23:51:00,
2013-10-22 16:57:00,86.9,30.2,29.16,NNW,327,0.0,0.0,13,0.00,,,0.00,meteohub,2013-10-22 23:57:00,
2013-10-22 17:02:00,86.5,29.8,29.16,NE,35,0.0,0.0,13,0.00,,,0.00,meteohub,2013-10-23 00:02:00,
2013-10-22 17:07:00,86.4,29.7,29.16,WSW,254,4.0,4.0,13,0.00,,,0.00,meteohub,2013-10-23 00:07:00,
2013-10-22 17:12:00,86.5,29.8,29.16,WNW,283,0.0,3.0,13,0.00,,,0.00,meteohub,2013-10-23 00:12:00,
2013-10-22 17:17:00,86.4,29.7,29.16,WSW,248,0.0,4.0,13,0.00,,,0.00,meteohub,2013-10-23 00:17:00,
2013-10-22 17:22:00,86.2,29.7,29.16,NNW,335,0.0,4.0,13,0.00,,,0.00,meteohub,2013-10-23 00:22:00,
2013-10-22 17:27:00,85.8,29.3,29.16,NNW,335,0.0,5.0,13,0.00,,,0.00,meteohub,2013-10-23 00:27:00,
2013-10-22 17:32:00,84.7,28.4,29.16,NW,319,0.0,5.0,13,0.00,,,0.00,meteohub,2013-10-23 00:32:00,
2013-10-22 17:37:00,83.5,29.3,29.16,NW,317,0.0,0.0,14,0.00,,,0.00,meteohub,2013-10-23 00:37:00,
2013-10-22 17:43:00,81.0,27.3,29.16,NNE,15,0.0,0.0,14,0.00,,,0.00,meteohub,2013-10-23 00:43:00,
2013-10-22 17:49:00,79.3,27.7,29.16,NNW,348,0.0,0.0,15,0.00,,,0.00,meteohub,2013-10-23 00:49:00,
2013-10-22 17:55:00,78.3,26.8,29.16,West,274,0.0,0.0,15,0.00,,,0.00,meteohub,2013-10-23 00:55:00,
2013-10-22 18:00:00,77.2,25.9,29.16,NNW,341,0.0,0.0,15,0.00,,,0.00,meteohub,2013-10-23 01:00:00,
2013-10-22 18:06:00,76.3,25.2,29.16,North,353,0.0,0.0,15,0.00,,,0.00,meteohub,2013-10-23 01:06:00,
2013-10-22 18:12:00,75.0,25.7,29.16,North,353,0.0,0.0,16,0.00,,,0.00,meteohub,2013-10-23 01:12:00,
2013-10-22 18:17:00,74.1,25.0,29.16,WNW,296,0.0,0.0,16,0.00,,,0.00,meteohub,2013-10-23 01:17:00,
2013-10-22 18:22:00,73.4,24.4,29.16,WNW,293,0.0,0.0,16,0.00,,,0.00,meteohub,2013-10-23 01:22:00,
2013-10-22 18:27:00,72.7,23.9,29.16,NNW,328,0.0,4.0,16,0.00,,,0.00,meteohub,2013-10-23 01:27:00,
2013-10-22 18:33:00,71.8,27.3,29.16,North,2,0.0,4.0,19,0.00,,,0.00,meteohub,2013-10-23 01:33:00,
2013-10-22 18:39:00,70.9,26.6,29.16,North,349,0.0,0.0,19,0.00,,,0.00,meteohub,2013-10-23 01:39:00,
2013-10-22 18:45:00,70.2,26.1,29.16,North,8,0.0,0.0,19,0.00,,,0.00,meteohub,2013-10-23 01:45:00,
2013-10-22 18:51:00,69.4,26.6,29.16,North,0,0.0,0.0,20,0.00,,,0.00,meteohub,2013-10-23 01:51:00,
2013-10-22 18:56:00,68.9,26.2,29.16,NNW,344,0.0,0.0,20,0.00,,,0.00,meteohub,2013-10-23 01:56:00,
2013-10-22 19:02:00,68.5,25.9,29.16,North,0,0.0,0.0,20,0.00,,,0.00,meteohub,2013-10-23 02:02:00,
2013-10-22 19:07:00,67.8,27.5,29.16,NE,36,0.0,3.0,22,0.00,,,0.00,meteohub,2013-10-23 02:07:00,
2013-10-22 19:12:00,67.3,27.1,29.16,NNE,19,0.0,3.0,22,0.00,,,0.00,meteohub,2013-10-23 02:12:00,
2013-10-22 19:17:00,66.7,27.7,29.16,North,11,0.0,0.0,23,0.00,,,0.00,meteohub,2013-10-23 02:17:00,
2013-10-22 19:23:00,66.0,27.1,29.16,North,5,0.0,0.0,23,0.00,,,0.00,meteohub,2013-10-23 02:23:00,
2013-10-22 19:29:00,65.7,26.8,29.16,North,357,0.0,0.0,23,0.00,,,0.00,meteohub,2013-10-23 02:29:00,
2013-10-22 19:35:00,64.9,27.3,29.16,North,357,0.0,0.0,24,0.00,,,0.00,meteohub,2013-10-23 02:35:00,
2013-10-22 19:41:00,64.4,26.8,29.16,NE,48,0.0,0.0,24,0.00,,,0.00,meteohub,2013-10-23 02:41:00,
2013-10-22 19:47:00,63.9,26.4,29.16,NNE,32,0.0,0.0,24,0.00,,,0.00,meteohub,2013-10-23 02:47:00,
2013-10-22 19:52:00,63.5,27.0,29.16,NNE,17,0.0,0.0,25,0.00,,,0.00,meteohub,2013-10-23 02:52:00,
2013-10-22 19:57:00,63.1,26.8,29.16,ENE,63,0.0,0.0,25,0.00,,,0.00,meteohub,2013-10-23 02:57:00,
2013-10-22 20:02:00,62.8,26.4,29.16,ENE,63,0.0,0.0,25,0.00,,,0.00,meteohub,2013-10-23 03:02:00,
2013-10-22 20:07:00,62.2,27.0,29.16,ENE,63,0.0,0.0,26,0.00,,,0.00,meteohub,2013-10-23 03:07:00,
2013-10-22 20:12:00,61.9,27.5,29.16,North,9,0.0,0.0,27,0.00,,,0.00,meteohub,2013-10-23 03:12:00,
2013-10-22 20:18:00,61.3,27.1,29.16,NE,35,0.0,0.0,27,0.00,,,0.00,meteohub,2013-10-23 03:18:00,
2013-10-22 20:24:00,60.8,27.5,29.16,North,10,0.0,3.0,28,0.00,,,0.00,meteohub,2013-10-23 03:24:00,
2013-10-22 20:30:00,60.4,28.9,29.16,NNW,345,3.0,3.0,30,0.00,,,0.00,meteohub,2013-10-23 03:30:00,
2013-10-22 20:36:00,60.1,28.6,29.16,North,10,0.0,3.0,30,0.00,,,0.00,meteohub,2013-10-23 03:36:00,
2013-10-22 20:42:00,59.4,27.9,29.19,NNE,29,0.0,3.0,30,0.00,,,0.00,meteohub,2013-10-23 03:42:00,
2013-10-22 20:47:00,59.2,28.6,29.19,North,5,0.0,3.0,31,0.00,,,0.00,meteohub,2013-10-23 03:47:00,
2013-10-22 20:52:00,58.8,28.9,29.19,North,5,0.0,3.0,32,0.00,,,0.00,meteohub,2013-10-23 03:52:00,
2013-10-22 20:57:00,58.5,27.9,29.19,NNE,16,0.0,0.0,31,0.00,,,0.00,meteohub,2013-10-23 03:57:00,
2013-10-22 21:01:00,58.5,27.9,29.19,NNE,16,0.0,0.0,31,0.00,,,0.00,meteohub,2013-10-23 04:01:00,
2013-10-22 21:02:00,58.5,27.9,29.19,NNE,16,0.0,0.0,31,0.00,,,0.00,meteohub,2013-10-23 04:02:00,
2013-10-22 21:03:00,58.3,29.3,29.19,NNE,15,0.0,0.0,33,0.00,,,0.00,meteohub,2013-10-23 04:03:00,
2013-10-22 21:04:00,58.3,29.3,29.19,NNE,15,0.0,0.0,33,0.00,,,0.00,meteohub,2013-10-23 04:04:00,
2013-10-22 21:06:00,58.1,29.8,29.19,NNE,15,0.0,0.0,34,0.00,,,0.00,meteohub,2013-10-23 04:06:00,
2013-10-22 21:12:00,57.9,29.7,29.19,North,357,0.0,0.0,34,0.00,,,0.00,meteohub,2013-10-23 04:12:00,
2013-10-22 21:14:00,57.6,30.0,29.19,North,357,0.0,0.0,35,0.00,,,0.00,meteohub,2013-10-23 04:14:00,
2013-10-22 21:20:00,57.2,29.8,29.19,North,357,0.0,0.0,35,0.00,,,0.00,meteohub,2013-10-23 04:20:00,
2013-10-22 21:26:00,56.8,29.5,29.19,NNW,329,0.0,0.0,35,0.00,,,0.00,meteohub,2013-10-23 04:26:00,
2013-10-22 21:32:00,56.3,29.7,29.19,NNW,344,0.0,0.0,36,0.00,,,0.00,meteohub,2013-10-23 04:32:00,
2013-10-22 21:36:00,56.1,29.5,29.19,North,0,0.0,0.0,36,0.00,,,0.00,meteohub,2013-10-23 04:36:00,
2013-10-22 21:42:00,55.8,29.8,29.19,North,6,0.0,0.0,37,0.00,,,0.00,meteohub,2013-10-23 04:42:00,
2013-10-22 21:47:00,55.4,29.5,29.19,North,1,0.0,0.0,37,0.00,,,0.00,meteohub,2013-10-23 04:47:00,
2013-10-22 21:52:00,55.0,29.3,29.19,North,1,0.0,0.0,37,0.00,,,0.00,meteohub,2013-10-23 04:52:00,
2013-10-22 21:57:00,54.9,29.7,29.19,North,1,0.0,0.0,38,0.00,,,0.00,meteohub,2013-10-23 04:57:00,
2013-10-22 22:02:00,54.5,29.5,29.19,North,1,0.0,0.0,38,0.00,,,0.00,meteohub,2013-10-23 05:02:00,
2013-10-22 22:07:00,54.1,29.1,29.19,North,1,0.0,0.0,38,0.00,,,0.00,meteohub,2013-10-23 05:07:00,
2013-10-22 22:12:00,54.0,28.2,29.19,North,1,0.0,0.0,37,0.00,,,0.00,meteohub,2013-10-23 05:12:00,
2013-10-22 22:17:00,53.6,28.0,29.19,North,1,0.0,0.0,37,0.00,,,0.00,meteohub,2013-10-23 05:17:00,
2013-10-22 22:22:00,53.4,28.4,29.19,North,1,0.0,0.0,38,0.00,,,0.00,meteohub,2013-10-23 05:22:00,
2013-10-22 22:27:00,53.1,28.8,29.19,North,1,0.0,0.0,39,0.00,,,0.00,meteohub,2013-10-23 05:27:00,
2013-10-22 22:32:00,53.1,29.3,29.19,North,1,0.0,0.0,40,0.00,,,0.00,meteohub,2013-10-23 05:32:00,
2013-10-22 22:37:00,52.7,29.1,29.19,North,1,0.0,0.0,40,0.00,,,0.00,meteohub,2013-10-23 05:37:00,
2013-10-22 22:43:00,52.5,28.9,29.19,North,1,0.0,0.0,40,0.00,,,0.00,meteohub,2013-10-23 05:43:00,
2013-10-22 22:49:00,52.3,28.0,29.19,North,1,0.0,0.0,39,0.00,,,0.00,meteohub,2013-10-23 05:49:00,
2013-10-22 22:55:00,52.2,28.6,29.19,North,1,0.0,0.0,40,0.00,,,0.00,meteohub,2013-10-23 05:55:00,
2013-10-22 23:00:00,52.0,28.4,29.19,North,1,0.0,0.0,40,0.00,,,0.00,meteohub,2013-10-23 06:00:00,
2013-10-22 23:06:00,51.8,28.8,29.19,North,1,0.0,0.0,41,0.00,,,0.00,meteohub,2013-10-23 06:06:00,
2013-10-22 23:12:00,51.6,30.9,29.19,North,1,0.0,0.0,45,0.00,,,0.00,meteohub,2013-10-23 06:12:00,
2013-10-22 23:17:00,51.4,30.2,29.19,North,1,0.0,0.0,44,0.00,,,0.00,meteohub,2013-10-23 06:17:00,
2013-10-22 23:22:00,51.3,29.5,29.19,North,1,0.0,0.0,43,0.00,,,0.00,meteohub,2013-10-23 06:22:00,
2013-10-22 23:27:00,51.1,29.3,29.19,North,1,0.0,0.0,43,0.00,,,0.00,meteohub,2013-10-23 06:27:00,
2013-10-22 23:32:00,51.1,29.8,29.19,North,1,0.0,0.0,44,0.00,,,0.00,meteohub,2013-10-23 06:32:00,
2013-10-22 23:37:00,50.9,29.1,29.19,North,1,0.0,0.0,43,0.00,,,0.00,meteohub,2013-10-23 06:37:00,
2013-10-22 23:42:00,50.7,29.7,29.19,North,1,0.0,0.0,44,0.00,,,0.00,meteohub,2013-10-23 06:42:00,
2013-10-22 23:47:00,50.5,30.0,29.19,North,1,0.0,0.0,45,0.00,,,0.00,meteohub,2013-10-23 06:47:00,
2013-10-22 23:52:00,50.4,30.4,29.19,North,1,0.0,0.0,46,0.00,,,0.00,meteohub,2013-10-23 06:52:00,
2013-10-22 23:57:00,50.4,30.4,29.19,North,1,0.0,0.0,46,0.00,,,0.00,meteohub,2013-10-23 06:57:00,